Year,Month,Day,Hour,Minute,Value (Times are PST for temperature in C)
2006,08,13,00,00,14.50
2006,08,13,00,01,14.50
2006,08,13,00,02,14.50
2006,08,13,00,03,14.50
2006,08,13,00,04,14.50
2006,08,13,00,05,14.40
2006,08,13,00,06,14.40
2006,08,13,00,07,14.40
2006,08,13,00,08,14.40
2006,08,13,00,09,14.40
2006,08,13,00,10,14.40
2006,08,13,00,11,14.40
2006,08,13,00,12,14.40
2006,08,13,00,13,14.40
2006,08,13,00,14,14.40
2006,08,13,00,15,14.40
2006,08,13,00,16,14.50
2006,08,13,00,17,14.50
2006,08,13,00,18,14.50
2006,08,13,00,19,14.50
2006,08,13,00,20,14.50
2006,08,13,00,21,14.50
2006,08,13,00,22,14.50
2006,08,13,00,23,14.50
2006,08,13,00,24,14.50
2006,08,13,00,25,14.50
2006,08,13,00,26,14.50
2006,08,13,00,27,14.50
2006,08,13,00,28,14.50
2006,08,13,00,29,14.50
2006,08,13,00,30,14.50
2006,08,13,00,31,14.50
2006,08,13,00,32,14.60
2006,08,13,00,33,14.60
2006,08,13,00,34,14.60
2006,08,13,00,35,14.60
2006,08,13,00,36,14.60
2006,08,13,00,37,14.60
2006,08,13,00,38,14.60
2006,08,13,00,39,14.60
2006,08,13,00,40,14.50
2006,08,13,00,41,14.50
2006,08,13,00,42,14.40
2006,08,13,00,43,14.40
2006,08,13,00,44,14.30
2006,08,13,00,45,14.30
2006,08,13,00,46,14.30
2006,08,13,00,47,14.20
2006,08,13,00,48,14.20
2006,08,13,00,49,14.20
2006,08,13,00,50,14.20
2006,08,13,00,51,14.20
2006,08,13,00,52,14.10
2006,08,13,00,53,14.10
2006,08,13,00,54,14.10
2006,08,13,00,55,14.10
2006,08,13,00,56,14.10
2006,08,13,00,57,14.10
2006,08,13,00,58,14.10
2006,08,13,00,59,14.00
2006,08,13,01,00,14.00
2006,08,13,01,01,14.00
2006,08,13,01,02,14.00
2006,08,13,01,03,14.00
2006,08,13,01,04,14.00
2006,08,13,01,05,14.00
2006,08,13,01,06,14.00
2006,08,13,01,07,14.00
2006,08,13,01,08,14.00
2006,08,13,01,09,13.90
2006,08,13,01,10,13.90
2006,08,13,01,11,13.90
2006,08,13,01,12,13.90
2006,08,13,01,13,13.80
2006,08,13,01,14,13.80
2006,08,13,01,15,13.70
2006,08,13,01,16,13.70
2006,08,13,01,17,13.70
2006,08,13,01,18,13.70
2006,08,13,01,19,13.70
2006,08,13,01,20,13.70
2006,08,13,01,21,13.70
2006,08,13,01,22,13.70
2006,08,13,01,23,13.70
2006,08,13,01,24,13.60
2006,08,13,01,25,13.60
2006,08,13,01,26,13.60
2006,08,13,01,27,13.60
2006,08,13,01,28,13.60
2006,08,13,01,29,13.60
2006,08,13,01,30,13.60
2006,08,13,01,31,13.50
2006,08,13,01,32,13.50
2006,08,13,01,33,13.50
2006,08,13,01,34,13.50
2006,08,13,01,35,13.50
2006,08,13,01,36,13.50
2006,08,13,01,37,13.50
2006,08,13,01,38,13.50
2006,08,13,01,39,13.50
2006,08,13,01,40,13.50
2006,08,13,01,41,13.50
2006,08,13,01,42,13.50
2006,08,13,01,43,13.60
2006,08,13,01,44,13.60
2006,08,13,01,45,13.50
2006,08,13,01,46,13.50
2006,08,13,01,47,13.50
2006,08,13,01,48,13.50
2006,08,13,01,49,13.50
2006,08,13,01,50,13.40
2006,08,13,01,51,13.40
2006,08,13,01,52,13.30
2006,08,13,01,53,13.30
2006,08,13,01,54,13.30
2006,08,13,01,55,13.30
2006,08,13,01,56,13.30
2006,08,13,01,57,13.30
2006,08,13,01,58,13.30
2006,08,13,01,59,13.30
2006,08,13,02,00,13.20
2006,08,13,02,01,13.20
2006,08,13,02,02,13.30
2006,08,13,02,03,13.30
2006,08,13,02,04,13.30
2006,08,13,02,05,13.30
2006,08,13,02,06,13.30
2006,08,13,02,07,13.30
2006,08,13,02,08,13.20
2006,08,13,02,09,13.20
2006,08,13,02,10,13.20
2006,08,13,02,11,13.20
2006,08,13,02,12,13.20
2006,08,13,02,13,13.20
2006,08,13,02,14,13.20
2006,08,13,02,15,13.20
2006,08,13,02,16,13.20
2006,08,13,02,17,13.20
2006,08,13,02,18,13.20
2006,08,13,02,19,13.20
2006,08,13,02,20,13.20
2006,08,13,02,21,13.20
2006,08,13,02,22,13.20
2006,08,13,02,23,13.20
2006,08,13,02,24,13.20
2006,08,13,02,25,13.20
2006,08,13,02,26,13.20
2006,08,13,02,27,13.20
2006,08,13,02,28,13.20
2006,08,13,02,29,13.20
2006,08,13,02,30,13.20
2006,08,13,02,31,13.20
2006,08,13,02,32,13.20
2006,08,13,02,33,13.10
2006,08,13,02,34,13.10
2006,08,13,02,35,13.10
2006,08,13,02,36,13.10
2006,08,13,02,37,13.00
2006,08,13,02,38,13.00
2006,08,13,02,39,13.00
2006,08,13,02,40,13.00
2006,08,13,02,41,13.00
2006,08,13,02,42,12.90
2006,08,13,02,43,12.90
2006,08,13,02,44,12.90
2006,08,13,02,45,12.90
2006,08,13,02,46,12.90
2006,08,13,02,47,12.90
2006,08,13,02,48,12.80
2006,08,13,02,49,12.80
2006,08,13,02,50,12.80
2006,08,13,02,51,12.80
2006,08,13,02,52,12.80
2006,08,13,02,53,12.80
2006,08,13,02,54,12.80
2006,08,13,02,55,12.80
2006,08,13,02,56,12.80
2006,08,13,02,57,12.80
2006,08,13,02,58,12.80
2006,08,13,02,59,12.80
2006,08,13,03,00,12.70
2006,08,13,03,01,12.70
2006,08,13,03,02,12.60
2006,08,13,03,03,12.60
2006,08,13,03,04,12.50
2006,08,13,03,05,12.50
2006,08,13,03,06,12.50
2006,08,13,03,07,12.40
2006,08,13,03,08,12.30
2006,08,13,03,09,12.30
2006,08,13,03,10,12.20
2006,08,13,03,11,12.20
2006,08,13,03,12,12.10
2006,08,13,03,13,12.10
2006,08,13,03,14,12.00
2006,08,13,03,15,12.00
2006,08,13,03,16,12.00
2006,08,13,03,17,11.90
2006,08,13,03,18,11.90
2006,08,13,03,19,11.90
2006,08,13,03,20,11.80
2006,08,13,03,21,11.80
2006,08,13,03,22,11.80
2006,08,13,03,23,11.80
2006,08,13,03,24,11.80
2006,08,13,03,25,11.70
2006,08,13,03,26,11.70
2006,08,13,03,27,11.70
2006,08,13,03,28,11.60
2006,08,13,03,29,11.60
2006,08,13,03,30,11.60
2006,08,13,03,31,11.60
2006,08,13,03,32,11.60
2006,08,13,03,33,11.60
2006,08,13,03,34,11.60
2006,08,13,03,35,11.60
2006,08,13,03,36,11.60
2006,08,13,03,37,11.60
2006,08,13,03,38,11.60
2006,08,13,03,39,11.60
2006,08,13,03,40,11.50
2006,08,13,03,41,11.40
2006,08,13,03,42,11.40
2006,08,13,03,43,11.40
2006,08,13,03,44,11.40
2006,08,13,03,45,11.40
2006,08,13,03,46,11.40
2006,08,13,03,47,11.40
2006,08,13,03,48,11.40
2006,08,13,03,49,11.40
2006,08,13,03,50,11.40
2006,08,13,03,51,11.40
2006,08,13,03,52,11.40
2006,08,13,03,53,11.40
2006,08,13,03,54,11.40
2006,08,13,03,55,11.40
2006,08,13,03,56,11.40
2006,08,13,03,57,11.40
2006,08,13,03,58,11.40
2006,08,13,03,59,11.40
2006,08,13,04,00,11.40
2006,08,13,04,01,11.40
2006,08,13,04,02,11.40
2006,08,13,04,03,11.50
2006,08,13,04,04,11.60
2006,08,13,04,05,11.60
2006,08,13,04,06,11.60
2006,08,13,04,07,11.70
2006,08,13,04,08,11.70
2006,08,13,04,09,11.70
2006,08,13,04,10,11.60
2006,08,13,04,11,11.60
2006,08,13,04,12,11.50
2006,08,13,04,13,11.40
2006,08,13,04,14,11.40
2006,08,13,04,15,11.40
2006,08,13,04,16,11.30
2006,08,13,04,17,11.30
2006,08,13,04,18,11.30
2006,08,13,04,19,11.30
2006,08,13,04,20,11.30
2006,08,13,04,21,11.30
2006,08,13,04,22,11.30
2006,08,13,04,23,11.40
2006,08,13,04,24,11.40
2006,08,13,04,25,11.40
2006,08,13,04,26,11.40
2006,08,13,04,27,11.40
2006,08,13,04,28,11.40
2006,08,13,04,29,11.40
2006,08,13,04,30,11.40
2006,08,13,04,31,11.40
2006,08,13,04,32,11.40
2006,08,13,04,33,11.30
2006,08,13,04,34,11.30
2006,08,13,04,35,11.30
2006,08,13,04,36,11.30
2006,08,13,04,37,11.30
2006,08,13,04,38,11.20
2006,08,13,04,39,11.20
2006,08,13,04,40,11.20
2006,08,13,04,41,11.20
2006,08,13,04,42,11.20
2006,08,13,04,43,11.20
2006,08,13,04,44,11.20
2006,08,13,04,45,11.30
2006,08,13,04,46,11.30
2006,08,13,04,47,11.30
2006,08,13,04,48,11.30
2006,08,13,04,49,11.30
2006,08,13,04,50,11.30
2006,08,13,04,51,11.30
2006,08,13,04,52,11.30
2006,08,13,04,53,11.30
2006,08,13,04,54,11.30
2006,08,13,04,55,11.30
2006,08,13,04,56,11.30
2006,08,13,04,57,11.30
2006,08,13,04,58,11.30
2006,08,13,04,59,11.30
2006,08,13,05,00,11.30
2006,08,13,05,01,11.30
2006,08,13,05,02,11.30
2006,08,13,05,03,11.30
2006,08,13,05,04,11.30
2006,08,13,05,05,11.30
2006,08,13,05,06,11.30
2006,08,13,05,07,11.40
2006,08,13,05,08,11.40
2006,08,13,05,09,11.40
2006,08,13,05,10,11.40
2006,08,13,05,11,11.40
2006,08,13,05,12,11.40
2006,08,13,05,13,11.40
2006,08,13,05,14,11.40
2006,08,13,05,15,11.40
2006,08,13,05,16,11.40
2006,08,13,05,17,11.40
2006,08,13,05,18,11.40
2006,08,13,05,19,11.40
2006,08,13,05,20,11.30
2006,08,13,05,21,11.30
2006,08,13,05,22,11.30
2006,08,13,05,23,11.30
2006,08,13,05,24,11.30
2006,08,13,05,25,11.20
2006,08,13,05,26,11.30
2006,08,13,05,27,11.30
2006,08,13,05,28,11.20
2006,08,13,05,29,11.20
2006,08,13,05,30,11.10
2006,08,13,05,31,11.10
2006,08,13,05,32,11.10
2006,08,13,05,33,11.10
2006,08,13,05,34,11.10
2006,08,13,05,35,11.20
2006,08,13,05,36,11.20
2006,08,13,05,37,11.30
2006,08,13,05,38,11.30
2006,08,13,05,39,11.40
2006,08,13,05,40,11.40
2006,08,13,05,41,11.40
2006,08,13,05,42,11.40
2006,08,13,05,43,11.40
2006,08,13,05,44,11.40
2006,08,13,05,45,11.40
2006,08,13,05,46,11.40
2006,08,13,05,47,11.40
2006,08,13,05,48,11.40
2006,08,13,05,49,11.30
2006,08,13,05,50,11.30
2006,08,13,05,51,11.30
2006,08,13,05,52,11.30
2006,08,13,05,53,11.30
2006,08,13,05,54,11.30
2006,08,13,05,55,11.30
2006,08,13,05,56,11.30
2006,08,13,05,57,11.30
2006,08,13,05,58,11.30
2006,08,13,05,59,11.30
2006,08,13,06,00,11.30
2006,08,13,06,01,11.30
2006,08,13,06,02,11.30
2006,08,13,06,03,11.30
2006,08,13,06,04,11.30
2006,08,13,06,05,11.30
2006,08,13,06,06,11.20
2006,08,13,06,07,11.20
2006,08,13,06,08,11.20
2006,08,13,06,09,11.30
2006,08,13,06,10,11.30
2006,08,13,06,11,11.30
2006,08,13,06,12,11.30
2006,08,13,06,13,11.30
2006,08,13,06,14,11.30
2006,08,13,06,15,11.30
2006,08,13,06,16,11.30
2006,08,13,06,17,11.20
2006,08,13,06,18,11.20
2006,08,13,06,19,11.10
2006,08,13,06,20,11.10
2006,08,13,06,21,11.10
2006,08,13,06,22,11.10
2006,08,13,06,23,11.10
2006,08,13,06,24,11.10
2006,08,13,06,25,11.10
2006,08,13,06,26,11.20
2006,08,13,06,27,11.20
2006,08,13,06,28,11.20
2006,08,13,06,29,11.20
2006,08,13,06,30,11.20
2006,08,13,06,31,11.20
2006,08,13,06,32,11.30
2006,08,13,06,33,11.30
2006,08,13,06,34,11.30
2006,08,13,06,35,11.40
2006,08,13,06,36,11.40
2006,08,13,06,37,11.40
2006,08,13,06,38,11.40
2006,08,13,06,39,11.40
2006,08,13,06,40,11.40
2006,08,13,06,41,11.40
2006,08,13,06,42,11.40
2006,08,13,06,43,11.40
2006,08,13,06,44,11.40
2006,08,13,06,45,11.40
2006,08,13,06,46,11.30
2006,08,13,06,47,11.30
2006,08,13,06,48,11.30
2006,08,13,06,49,11.20
2006,08,13,06,50,11.20
2006,08,13,06,51,11.20
2006,08,13,06,52,11.20
2006,08,13,06,53,11.20
2006,08,13,06,54,11.20
2006,08,13,06,55,11.30
2006,08,13,06,56,11.30
2006,08,13,06,57,11.30
2006,08,13,06,58,11.30
2006,08,13,06,59,11.30
2006,08,13,07,00,11.30
2006,08,13,07,01,11.40
2006,08,13,07,02,11.40
2006,08,13,07,03,11.40
2006,08,13,07,04,11.40
2006,08,13,07,05,11.40
2006,08,13,07,06,11.40
2006,08,13,07,07,11.40
2006,08,13,07,08,11.40
2006,08,13,07,09,11.40
2006,08,13,07,10,11.40
2006,08,13,07,11,11.40
2006,08,13,07,12,11.40
2006,08,13,07,13,11.40
2006,08,13,07,14,11.40
2006,08,13,07,15,11.40
2006,08,13,07,16,11.50
2006,08,13,07,17,11.60
2006,08,13,07,18,11.70
2006,08,13,07,19,11.70
2006,08,13,07,20,11.80
2006,08,13,07,21,11.80
2006,08,13,07,22,11.90
2006,08,13,07,23,11.90
2006,08,13,07,24,12.00
2006,08,13,07,25,12.10
2006,08,13,07,26,12.10
2006,08,13,07,27,12.20
2006,08,13,07,28,12.30
2006,08,13,07,29,12.30
2006,08,13,07,30,12.50
2006,08,13,07,31,12.60
2006,08,13,07,32,12.60
2006,08,13,07,33,12.70
2006,08,13,07,34,12.80
2006,08,13,07,35,13.00
2006,08,13,07,36,13.00
2006,08,13,07,37,13.10
2006,08,13,07,38,13.30
2006,08,13,07,39,13.40
2006,08,13,07,40,13.40
2006,08,13,07,41,13.40
2006,08,13,07,42,13.50
2006,08,13,07,43,13.50
2006,08,13,07,44,13.60
2006,08,13,07,45,13.70
2006,08,13,07,46,13.80
2006,08,13,07,47,13.90
2006,08,13,07,48,14.00
2006,08,13,07,49,14.00
2006,08,13,07,50,14.20
2006,08,13,07,51,14.20
2006,08,13,07,52,14.40
2006,08,13,07,53,14.50
2006,08,13,07,54,14.60
2006,08,13,07,55,14.60
2006,08,13,07,56,14.70
2006,08,13,07,57,14.80
2006,08,13,07,58,14.80
2006,08,13,07,59,14.90
2006,08,13,08,00,14.90
2006,08,13,08,01,15.00
2006,08,13,08,02,15.00
2006,08,13,08,03,14.90
2006,08,13,08,04,14.80
2006,08,13,08,05,14.70
2006,08,13,08,06,14.70
2006,08,13,08,07,14.70
2006,08,13,08,08,14.70
2006,08,13,08,09,14.70
2006,08,13,08,10,14.60
2006,08,13,08,11,14.60
2006,08,13,08,12,14.60
2006,08,13,08,13,14.60
2006,08,13,08,14,14.70
2006,08,13,08,15,14.70
2006,08,13,08,16,14.80
2006,08,13,08,17,14.80
2006,08,13,08,18,14.90
2006,08,13,08,19,14.90
2006,08,13,08,20,15.00
2006,08,13,08,21,15.00
2006,08,13,08,22,15.10
2006,08,13,08,23,15.10
2006,08,13,08,24,15.20
2006,08,13,08,25,15.20
2006,08,13,08,26,15.30
2006,08,13,08,27,15.30
2006,08,13,08,28,15.30
2006,08,13,08,29,15.40
2006,08,13,08,30,15.50
2006,08,13,08,31,15.60
2006,08,13,08,32,15.60
2006,08,13,08,33,15.70
2006,08,13,08,34,15.80
2006,08,13,08,35,15.90
2006,08,13,08,36,16.10
2006,08,13,08,37,16.20
2006,08,13,08,38,16.30
2006,08,13,08,39,16.40
2006,08,13,08,40,16.60
2006,08,13,08,41,16.70
2006,08,13,08,42,16.90
2006,08,13,08,43,17.00
2006,08,13,08,44,17.10
2006,08,13,08,45,17.30
2006,08,13,08,46,17.40
2006,08,13,08,47,17.50
2006,08,13,08,48,17.70
2006,08,13,08,49,17.70
2006,08,13,08,50,17.70
2006,08,13,08,51,17.80
2006,08,13,08,52,17.80
2006,08,13,08,53,17.80
2006,08,13,08,54,17.90
2006,08,13,08,55,17.90
2006,08,13,08,56,17.90
2006,08,13,08,57,17.90
2006,08,13,08,58,18.00
2006,08,13,08,59,18.10
2006,08,13,09,00,18.10
2006,08,13,09,01,18.10
2006,08,13,09,02,18.10
2006,08,13,09,03,18.10
2006,08,13,09,04,18.10
2006,08,13,09,05,18.10
2006,08,13,09,06,18.10
2006,08,13,09,07,18.10
2006,08,13,09,08,18.20
2006,08,13,09,09,18.20
2006,08,13,09,10,18.20
2006,08,13,09,11,18.30
2006,08,13,09,12,18.40
2006,08,13,09,13,18.40
2006,08,13,09,14,18.50
2006,08,13,09,15,18.40
2006,08,13,09,16,18.40
2006,08,13,09,17,18.40
2006,08,13,09,18,18.40
2006,08,13,09,19,18.40
2006,08,13,09,20,18.40
2006,08,13,09,21,18.50
2006,08,13,09,22,18.40
2006,08,13,09,23,18.40
2006,08,13,09,24,18.30
2006,08,13,09,25,18.30
2006,08,13,09,26,18.30
2006,08,13,09,27,18.30
2006,08,13,09,28,18.40
2006,08,13,09,29,18.50
2006,08,13,09,30,18.50
2006,08,13,09,31,18.50
2006,08,13,09,32,18.50
2006,08,13,09,33,18.50
2006,08,13,09,34,18.60
2006,08,13,09,35,18.50
2006,08,13,09,36,18.60
2006,08,13,09,37,18.60
2006,08,13,09,38,18.60
2006,08,13,09,39,18.60
2006,08,13,09,40,18.60
2006,08,13,09,41,18.60
2006,08,13,09,42,18.70
2006,08,13,09,43,18.70
2006,08,13,09,44,18.70
2006,08,13,09,45,18.80
2006,08,13,09,46,18.80
2006,08,13,09,47,18.80
2006,08,13,09,48,18.80
2006,08,13,09,49,18.90
2006,08,13,09,50,18.90
2006,08,13,09,51,18.90
2006,08,13,09,52,18.90
2006,08,13,09,53,18.90
2006,08,13,09,54,18.90
2006,08,13,09,55,18.90
2006,08,13,09,56,18.90
2006,08,13,09,57,18.90
2006,08,13,09,58,19.00
2006,08,13,09,59,19.10
2006,08,13,10,00,19.10
2006,08,13,10,01,19.10
2006,08,13,10,02,19.10
2006,08,13,10,03,19.10
2006,08,13,10,04,19.10
2006,08,13,10,05,19.10
2006,08,13,10,06,19.10
2006,08,13,10,07,19.10
2006,08,13,10,08,19.10
2006,08,13,10,09,19.00
2006,08,13,10,10,18.90
2006,08,13,10,11,19.00
2006,08,13,10,12,19.10
2006,08,13,10,13,19.10
2006,08,13,10,14,19.10
2006,08,13,10,15,19.10
2006,08,13,10,16,19.20
2006,08,13,10,17,19.30
2006,08,13,10,18,19.40
2006,08,13,10,19,19.40
2006,08,13,10,20,19.50
2006,08,13,10,21,19.50
2006,08,13,10,22,19.50
2006,08,13,10,23,19.50
2006,08,13,10,24,19.50
2006,08,13,10,25,19.50
2006,08,13,10,26,19.40
2006,08,13,10,27,19.40
2006,08,13,10,28,19.40
2006,08,13,10,29,19.30
2006,08,13,10,30,19.30
2006,08,13,10,31,19.30
2006,08,13,10,32,19.30
2006,08,13,10,33,19.40
2006,08,13,10,34,19.50
2006,08,13,10,35,19.60
2006,08,13,10,36,19.60
2006,08,13,10,37,19.60
2006,08,13,10,38,19.60
2006,08,13,10,39,19.70
2006,08,13,10,40,19.70
2006,08,13,10,41,19.70
2006,08,13,10,42,19.80
2006,08,13,10,43,19.90
2006,08,13,10,44,19.90
2006,08,13,10,45,20.10
2006,08,13,10,46,20.20
2006,08,13,10,47,20.20
2006,08,13,10,48,20.20
2006,08,13,10,49,20.20
2006,08,13,10,50,20.20
2006,08,13,10,51,20.20
2006,08,13,10,52,20.20
2006,08,13,10,53,20.10
2006,08,13,10,54,20.00
2006,08,13,10,55,19.90
2006,08,13,10,56,19.80
2006,08,13,10,57,19.70
2006,08,13,10,58,19.70
2006,08,13,10,59,19.60
2006,08,13,11,00,19.60
2006,08,13,11,01,19.50
2006,08,13,11,02,19.60
2006,08,13,11,03,19.60
2006,08,13,11,04,19.60
2006,08,13,11,05,19.60
2006,08,13,11,06,19.60
2006,08,13,11,07,19.60
2006,08,13,11,08,19.50
2006,08,13,11,09,19.50
2006,08,13,11,10,19.50
2006,08,13,11,11,19.60
2006,08,13,11,12,19.60
2006,08,13,11,13,19.80
2006,08,13,11,14,19.90
2006,08,13,11,15,19.90
2006,08,13,11,16,20.00
2006,08,13,11,17,20.20
2006,08,13,11,18,20.20
2006,08,13,11,19,20.20
2006,08,13,11,20,20.20
2006,08,13,11,21,20.10
2006,08,13,11,22,20.20
2006,08,13,11,23,20.20
2006,08,13,11,24,20.20
2006,08,13,11,25,20.10
2006,08,13,11,26,20.20
2006,08,13,11,27,20.10
2006,08,13,11,28,20.10
2006,08,13,11,29,20.20
2006,08,13,11,30,20.20
2006,08,13,11,31,20.20
2006,08,13,11,32,20.20
2006,08,13,11,33,20.30
2006,08,13,11,34,20.50
2006,08,13,11,35,20.60
2006,08,13,11,36,20.60
2006,08,13,11,37,20.60
2006,08,13,11,38,20.70
2006,08,13,11,39,20.70
2006,08,13,11,40,20.60
2006,08,13,11,41,20.60
2006,08,13,11,42,20.70
2006,08,13,11,43,20.70
2006,08,13,11,44,20.70
2006,08,13,11,45,20.70
2006,08,13,11,46,20.70
2006,08,13,11,47,20.70
2006,08,13,11,48,20.70
2006,08,13,11,49,20.70
2006,08,13,11,50,20.60
2006,08,13,11,51,20.50
2006,08,13,11,52,20.50
2006,08,13,11,53,20.40
2006,08,13,11,54,20.40
2006,08,13,11,55,20.50
2006,08,13,11,56,20.50
2006,08,13,11,57,20.70
2006,08,13,11,58,20.80
2006,08,13,11,59,20.80
2006,08,13,12,00,20.90
2006,08,13,12,01,20.90
2006,08,13,12,02,20.90
2006,08,13,12,03,21.00
2006,08,13,12,04,21.00
2006,08,13,12,05,21.00
2006,08,13,12,06,21.00
2006,08,13,12,07,20.90
2006,08,13,12,08,21.00
2006,08,13,12,09,21.00
2006,08,13,12,10,21.00
2006,08,13,12,11,21.10
2006,08,13,12,12,21.20
2006,08,13,12,13,21.30
2006,08,13,12,14,21.30
2006,08,13,12,15,21.30
2006,08,13,12,16,21.30
2006,08,13,12,17,21.30
2006,08,13,12,18,21.30
2006,08,13,12,19,21.30
2006,08,13,12,20,21.30
2006,08,13,12,21,21.30
2006,08,13,12,22,21.30
2006,08,13,12,23,21.30
2006,08,13,12,24,21.30
2006,08,13,12,25,21.30
2006,08,13,12,26,21.30
2006,08,13,12,27,21.30
2006,08,13,12,28,21.30
2006,08,13,12,29,21.20
2006,08,13,12,30,21.30
2006,08,13,12,31,21.30
2006,08,13,12,32,21.30
2006,08,13,12,33,21.30
2006,08,13,12,34,21.30
2006,08,13,12,35,21.30
2006,08,13,12,36,21.30
2006,08,13,12,37,21.30
2006,08,13,12,38,21.40
2006,08,13,12,39,21.40
2006,08,13,12,40,21.60
2006,08,13,12,41,21.60
2006,08,13,12,42,21.80
2006,08,13,12,43,21.90
2006,08,13,12,44,22.00
2006,08,13,12,45,22.00
2006,08,13,12,46,22.00
2006,08,13,12,47,22.00
2006,08,13,12,48,22.10
2006,08,13,12,49,22.00
2006,08,13,12,50,22.00
2006,08,13,12,51,21.90
2006,08,13,12,52,21.90
2006,08,13,12,53,21.90
2006,08,13,12,54,21.90
2006,08,13,12,55,22.00
2006,08,13,12,56,22.00
2006,08,13,12,57,22.10
2006,08,13,12,58,22.00
2006,08,13,12,59,22.00
2006,08,13,13,00,21.90
2006,08,13,13,01,21.80
2006,08,13,13,02,21.70
2006,08,13,13,03,21.60
2006,08,13,13,04,21.60
2006,08,13,13,05,21.60
2006,08,13,13,06,21.50
2006,08,13,13,07,21.40
2006,08,13,13,08,21.40
2006,08,13,13,09,21.50
2006,08,13,13,10,21.60
2006,08,13,13,11,21.60
2006,08,13,13,12,21.60
2006,08,13,13,13,21.60
2006,08,13,13,14,21.70
2006,08,13,13,15,21.80
2006,08,13,13,16,21.80
2006,08,13,13,17,21.80
2006,08,13,13,18,21.80
2006,08,13,13,19,21.80
2006,08,13,13,20,21.90
2006,08,13,13,21,21.90
2006,08,13,13,22,22.00
2006,08,13,13,23,22.10
2006,08,13,13,24,22.20
2006,08,13,13,25,22.20
2006,08,13,13,26,22.30
2006,08,13,13,27,22.30
2006,08,13,13,28,22.30
2006,08,13,13,29,22.40
2006,08,13,13,30,22.40
2006,08,13,13,31,22.50
2006,08,13,13,32,22.50
2006,08,13,13,33,22.60
2006,08,13,13,34,22.70
2006,08,13,13,35,22.60
2006,08,13,13,36,22.60
2006,08,13,13,37,22.40
2006,08,13,13,38,22.30
2006,08,13,13,39,22.30
2006,08,13,13,40,22.30
2006,08,13,13,41,22.40
2006,08,13,13,42,22.50
2006,08,13,13,43,22.40
2006,08,13,13,44,22.40
2006,08,13,13,45,22.50
2006,08,13,13,46,22.50
2006,08,13,13,47,22.60
2006,08,13,13,48,22.60
2006,08,13,13,49,22.60
2006,08,13,13,50,22.60
2006,08,13,13,51,22.60
2006,08,13,13,52,22.70
2006,08,13,13,53,22.60
2006,08,13,13,54,22.60
2006,08,13,13,55,22.70
2006,08,13,13,56,22.80
2006,08,13,13,57,22.90
2006,08,13,13,58,22.90
2006,08,13,13,59,23.00
2006,08,13,14,00,23.10
2006,08,13,14,01,23.30
2006,08,13,14,02,23.30
2006,08,13,14,03,23.30
2006,08,13,14,04,23.30
2006,08,13,14,05,23.30
2006,08,13,14,06,23.40
2006,08,13,14,07,23.40
2006,08,13,14,08,23.50
2006,08,13,14,09,23.70
2006,08,13,14,10,23.70
2006,08,13,14,11,23.60
2006,08,13,14,12,23.50
2006,08,13,14,13,23.40
2006,08,13,14,14,23.30
2006,08,13,14,15,23.30
2006,08,13,14,16,23.30
2006,08,13,14,17,23.10
2006,08,13,14,18,23.10
2006,08,13,14,19,23.10
2006,08,13,14,20,23.20
2006,08,13,14,21,23.20
2006,08,13,14,22,23.20
2006,08,13,14,23,23.30
2006,08,13,14,24,23.30
2006,08,13,14,25,23.30
2006,08,13,14,26,23.30
2006,08,13,14,27,23.30
2006,08,13,14,28,23.40
2006,08,13,14,29,23.50
2006,08,13,14,30,23.60
2006,08,13,14,31,23.60
2006,08,13,14,32,23.50
2006,08,13,14,33,23.40
2006,08,13,14,34,23.40
2006,08,13,14,35,23.40
2006,08,13,14,36,23.40
2006,08,13,14,37,23.40
2006,08,13,14,38,23.60
2006,08,13,14,39,23.60
2006,08,13,14,40,23.70
2006,08,13,14,41,23.70
2006,08,13,14,42,23.70
2006,08,13,14,43,23.70
2006,08,13,14,44,23.70
2006,08,13,14,45,23.60
2006,08,13,14,46,23.50
2006,08,13,14,47,23.50
2006,08,13,14,48,23.60
2006,08,13,14,49,23.70
2006,08,13,14,50,23.70
2006,08,13,14,51,23.80
2006,08,13,14,52,23.90
2006,08,13,14,53,23.90
2006,08,13,14,54,23.90
2006,08,13,14,55,23.90
2006,08,13,14,56,23.80
2006,08,13,14,57,23.90
2006,08,13,14,58,23.80
2006,08,13,14,59,24.00
2006,08,13,15,00,24.10
2006,08,13,15,01,24.10
2006,08,13,15,02,24.10
2006,08,13,15,03,24.10
2006,08,13,15,04,24.10
2006,08,13,15,05,24.10
2006,08,13,15,06,24.00
2006,08,13,15,07,23.90
2006,08,13,15,08,23.80
2006,08,13,15,09,23.80
2006,08,13,15,10,23.80
2006,08,13,15,11,23.80
2006,08,13,15,12,23.90
2006,08,13,15,13,24.00
2006,08,13,15,14,24.10
2006,08,13,15,15,24.10
2006,08,13,15,16,24.10
2006,08,13,15,17,24.10
2006,08,13,15,18,24.10
2006,08,13,15,19,24.10
2006,08,13,15,20,24.10
2006,08,13,15,21,24.00
2006,08,13,15,22,23.90
2006,08,13,15,23,24.00
2006,08,13,15,24,24.10
2006,08,13,15,25,24.10
2006,08,13,15,26,24.20
2006,08,13,15,27,24.20
2006,08,13,15,28,24.30
2006,08,13,15,29,24.40
2006,08,13,15,30,24.40
2006,08,13,15,31,24.50
2006,08,13,15,32,24.70
2006,08,13,15,33,24.70
2006,08,13,15,34,24.80
2006,08,13,15,35,24.80
2006,08,13,15,36,24.80
2006,08,13,15,37,24.80
2006,08,13,15,38,24.70
2006,08,13,15,39,24.70
2006,08,13,15,40,24.70
2006,08,13,15,41,24.70
2006,08,13,15,42,24.60
2006,08,13,15,43,24.50
2006,08,13,15,44,24.50
2006,08,13,15,45,24.40
2006,08,13,15,46,24.30
2006,08,13,15,47,24.30
2006,08,13,15,48,24.30
2006,08,13,15,49,24.20
2006,08,13,15,50,24.20
2006,08,13,15,51,24.10
2006,08,13,15,52,24.10
2006,08,13,15,53,24.10
2006,08,13,15,54,24.10
2006,08,13,15,55,24.10
2006,08,13,15,56,24.20
2006,08,13,15,57,24.30
2006,08,13,15,58,24.30
2006,08,13,15,59,24.30
2006,08,13,16,00,24.30
2006,08,13,16,01,24.40
2006,08,13,16,02,24.40
2006,08,13,16,03,24.50
2006,08,13,16,04,24.50
2006,08,13,16,05,24.60
2006,08,13,16,06,24.60
2006,08,13,16,07,24.70
2006,08,13,16,08,24.60
2006,08,13,16,09,24.50
2006,08,13,16,10,24.40
2006,08,13,16,11,24.30
2006,08,13,16,12,24.40
2006,08,13,16,13,24.50
2006,08,13,16,14,24.50
2006,08,13,16,15,24.60
2006,08,13,16,16,24.60
2006,08,13,16,17,24.60
2006,08,13,16,18,24.50
2006,08,13,16,19,24.40
2006,08,13,16,20,24.40
2006,08,13,16,21,24.30
2006,08,13,16,22,24.30
2006,08,13,16,23,24.30
2006,08,13,16,24,24.30
2006,08,13,16,25,24.40
2006,08,13,16,26,24.40
2006,08,13,16,27,24.50
2006,08,13,16,28,24.50
2006,08,13,16,29,24.60
2006,08,13,16,30,24.60
2006,08,13,16,31,24.60
2006,08,13,16,32,24.60
2006,08,13,16,33,24.60
2006,08,13,16,34,24.60
2006,08,13,16,35,24.60
2006,08,13,16,36,24.60
2006,08,13,16,37,24.60
2006,08,13,16,38,24.50
2006,08,13,16,39,24.50
2006,08,13,16,40,24.60
2006,08,13,16,41,24.70
2006,08,13,16,42,24.70
2006,08,13,16,43,24.80
2006,08,13,16,44,24.90
2006,08,13,16,45,24.90
2006,08,13,16,46,24.90
2006,08,13,16,47,24.90
2006,08,13,16,48,24.90
2006,08,13,16,49,25.00
2006,08,13,16,50,25.10
2006,08,13,16,51,25.20
2006,08,13,16,52,25.20
2006,08,13,16,53,25.10
2006,08,13,16,54,25.10
2006,08,13,16,55,25.10
2006,08,13,16,56,25.20
2006,08,13,16,57,25.20
2006,08,13,16,58,25.30
2006,08,13,16,59,25.30
2006,08,13,17,00,25.30
2006,08,13,17,01,25.30
2006,08,13,17,02,25.20
2006,08,13,17,03,25.10
2006,08,13,17,04,25.10
2006,08,13,17,05,25.10
2006,08,13,17,06,25.00
2006,08,13,17,07,25.00
2006,08,13,17,08,24.90
2006,08,13,17,09,24.90
2006,08,13,17,10,25.00
2006,08,13,17,11,25.00
2006,08,13,17,12,25.00
2006,08,13,17,13,24.80
2006,08,13,17,14,24.40
2006,08,13,17,15,24.20
2006,08,13,17,16,24.00
2006,08,13,17,17,23.70
2006,08,13,17,18,23.60
2006,08,13,17,19,23.60